Kremmling, CO

10:53 AM MST on November 22, 2019 (GMT -0700)
Kremmling

Weather History for K20V - September, 2019

Change the Weather History Date:

Friday, September 20, 2019

  Actual Average Record
Temperature  
Mean Temperature 54 °F -  
Max Temperature 75 °F - 82 °F (2005)
Min Temperature 33 °F - 24 °F (2005)
Degree Days  
Heating Degree Days 11    
Month to date heating degree days 132  
Cooling Degree Days 0    
Month to date cooling degree days 4  
Growing Degree Days 4 (Base 50)    
Moisture  
Dew Point 30 °F    
Average Humidity 45    
Maximum Humidity 96    
Minimum Humidity 18    
Precipitation  
Precipitation 0.00 in - 0.44 in (2004)
Snow  
Snow 0.00 in - - ()
Snow Depth 0.00 in    
Sea Level Pressure  
Sea Level Pressure 30.01 in    
Wind  
Wind Speed 5 mph ()    
Max Wind Speed 23 mph    
Max Gust Speed 32 mph    
Visibility 10.0 miles    
Events      
T = Trace of Precipitation, MM = Missing Value Source: Averaged Metar Reports

Daily Weather History Graph

Daily Weather History Graph

Search for Another Location

Airport or City:

Astronomy

Sep. 20, 2019 Rise Set
Actual Time 6:51 AM MDT 7:06 PM MDT
Civil Twilight 6:23 AM MDT 7:33 PM MDT
Nautical Twilight 5:52 AM MDT 8:04 PM MDT
Astronomical Twilight 5:19 AM MDT 8:37 PM MDT
Moon 10:58 PM MDT (9/20) 12:58 PM MDT (9/20)
Length of Visible Light 13h 09m
Length of Day
12h 15m
Waning Gibbous, 64% of the Moon is Illuminated
Sep 20
Waning Gibbous
Sep 21
Last Quarter
Sep 28
New
Oct 5
First Quarter
Oct 13
Full

Hourly Weather History & Observations

Time (MDT) Temp. Windchill Dew Point Humidity Pressure Visibility Wind Dir Wind Speed Gust Speed Precip Events Conditions
12:06 AM 48.2 °F - 35.6 °F 62% 30.02 in 10.0 mi Calm Calm - N/A   Clear
12:30 AM 44.6 °F - 33.8 °F 66% 30.02 in 10.0 mi Calm Calm - N/A   Clear
12:47 AM 48.2 °F - 35.6 °F 62% 30.02 in 10.0 mi Calm Calm - N/A   Clear
1:06 AM 44.6 °F - 33.8 °F 66% 30.03 in 10.0 mi Calm Calm - N/A   Clear
1:30 AM 44.6 °F - 33.8 °F 66% 30.04 in 10.0 mi Calm Calm - N/A   Clear
1:48 AM 44.6 °F - 33.8 °F 66% 30.04 in 10.0 mi Calm Calm - N/A   Clear
2:06 AM 41.0 °F - 32.0 °F 70% 30.04 in 10.0 mi Calm Calm - N/A   Clear
2:30 AM 41.0 °F - 32.0 °F 70% 30.04 in 10.0 mi Calm Calm - N/A   Clear
2:48 AM 39.2 °F 35.0 °F 32.0 °F 75% 30.04 in 10.0 mi ESE 5.8 mph - N/A   Clear
3:06 AM 41.0 °F - 32.0 °F 70% 30.04 in 10.0 mi Calm Calm - N/A   Clear
3:30 AM 41.0 °F 39.0 °F 33.8 °F 76% 30.04 in 10.0 mi NNE 3.5 mph - N/A   Clear
3:48 AM 39.2 °F - 32.0 °F 75% 30.04 in 10.0 mi Calm Calm - N/A   Clear
4:06 AM 37.4 °F - 32.0 °F 81% 30.04 in 10.0 mi Calm Calm - N/A   Clear
4:30 AM 39.2 °F - 32.0 °F 75% 30.04 in 10.0 mi Calm Calm - N/A   Clear
4:48 AM 37.4 °F 33.8 °F 32.0 °F 81% 30.04 in 10.0 mi SSW 4.6 mph - N/A   Clear
5:06 AM 37.4 °F 34.9 °F 33.8 °F 87% 30.04 in 10.0 mi ENE 3.5 mph - N/A   Clear
5:28 AM 35.6 °F - 32.0 °F 87% 30.04 in 10.0 mi Calm Calm - N/A   Clear
5:46 AM 35.6 °F - 32.0 °F 87% 30.04 in 10.0 mi Calm Calm - N/A   Clear
6:08 AM 35.6 °F - 32.0 °F 87% 30.04 in 10.0 mi Calm Calm - N/A   Clear
6:26 AM 35.6 °F - 32.0 °F 87% 30.04 in 10.0 mi Calm Calm - N/A   Clear
6:49 AM 33.8 °F - 32.0 °F 93% 30.04 in 10.0 mi Calm Calm - N/A   Clear
7:06 AM 35.6 °F 32.8 °F 32.0 °F 87% 30.04 in 10.0 mi ENE 3.5 mph - N/A   Clear
7:28 AM 35.6 °F - 32.0 °F 87% 30.06 in 10.0 mi Calm Calm - N/A   Clear
7:46 AM 37.4 °F - 32.0 °F 81% 30.06 in 10.0 mi Calm Calm - N/A   Clear
8:06 AM 41.0 °F - 32.0 °F 70% 30.05 in 10.0 mi Calm Calm - N/A   Clear
8:30 AM 46.4 °F - 33.8 °F 62% 30.05 in 10.0 mi Calm Calm - N/A   Clear
8:48 AM 48.2 °F - 33.8 °F 58% 30.04 in 10.0 mi SSE 3.5 mph - N/A   Clear
9:06 AM 50.0 °F - 35.6 °F 58% 30.04 in 10.0 mi Calm Calm - N/A   Clear
9:30 AM 53.6 °F - 35.6 °F 51% 30.04 in 10.0 mi Calm Calm - N/A   Clear
9:48 AM 53.6 °F - 35.6 °F 51% 30.03 in 10.0 mi Calm Calm - N/A   Clear
10:06 AM 59.0 °F - 35.6 °F 42% 30.02 in 10.0 mi Calm Calm - N/A   Clear
10:30 AM 62.6 °F - 35.6 °F 37% 30.01 in 10.0 mi ESE 3.5 mph - N/A   Clear
10:48 AM 64.4 °F - 35.6 °F 34% 30.00 in 10.0 mi WNW 3.5 mph - N/A   Clear
11:06 AM 68.0 °F - 37.4 °F 33% 29.99 in 10.0 mi WNW 3.5 mph - N/A   Clear
11:30 AM 69.8 °F - 33.8 °F 27% 29.98 in 10.0 mi SSW 16.1 mph 25.3 mph N/A   Clear
11:48 AM 71.6 °F - 32.0 °F 23% 29.98 in 10.0 mi West 16.1 mph 25.3 mph N/A   Scattered Clouds
12:06 PM 69.8 °F - 32.0 °F 25% 29.97 in 10.0 mi WSW 12.7 mph 24.2 mph N/A   Scattered Clouds
12:30 PM 73.4 °F - 30.2 °F 20% 29.97 in 10.0 mi SW 15.0 mph 21.9 mph N/A   Clear
12:48 PM 73.4 °F - 30.2 °F 20% 29.97 in 10.0 mi WSW 13.8 mph 18.4 mph N/A   Clear
1:06 PM 73.4 °F - 30.2 °F 20% 29.96 in 10.0 mi WSW 18.4 mph 25.3 mph N/A   Clear
1:30 PM 75.2 °F - 30.2 °F 19% 29.94 in 10.0 mi West 20.7 mph 27.6 mph N/A   Clear
1:48 PM 69.8 °F - 28.4 °F 21% 29.94 in 10.0 mi WSW 10.4 mph 25.3 mph N/A   Scattered Clouds
2:06 PM 71.6 °F - 28.4 °F 20% 29.94 in 10.0 mi WSW 13.8 mph 19.6 mph N/A   Scattered Clouds
2:30 PM 75.2 °F - 28.4 °F 18% 29.93 in 10.0 mi WSW 18.4 mph 21.9 mph N/A   Scattered Clouds
2:48 PM 73.4 °F - 28.4 °F 19% 29.93 in 10.0 mi WSW 16.1 mph 28.8 mph N/A   Scattered Clouds
3:06 PM 75.2 °F - 28.4 °F 18% 29.92 in 10.0 mi WSW 18.4 mph 26.5 mph N/A   Scattered Clouds
3:30 PM 75.2 °F - 28.4 °F 18% 29.92 in 10.0 mi WSW 13.8 mph 23.0 mph N/A   Clear
3:48 PM 75.2 °F - 28.4 °F 18% 29.92 in 10.0 mi WSW 12.7 mph 25.3 mph N/A   Clear
4:06 PM 73.4 °F - 26.6 °F 18% 29.92 in 10.0 mi WSW 17.3 mph 25.3 mph N/A   Clear
4:30 PM 71.6 °F - 26.6 °F 19% 29.94 in 10.0 mi WSW 13.8 mph 26.5 mph N/A   Clear
4:48 PM 73.4 °F - 28.4 °F 19% 29.94 in 10.0 mi West 21.9 mph 32.2 mph N/A   Clear
5:06 PM 71.6 °F - 28.4 °F 20% 29.94 in 10.0 mi West 16.1 mph 29.9 mph N/A   Clear
5:30 PM 69.8 °F - 28.4 °F 21% 29.94 in 10.0 mi West 19.6 mph 31.1 mph N/A   Clear
5:48 PM 69.8 °F - 26.6 °F 20% 29.95 in 10.0 mi WSW 17.3 mph 27.6 mph N/A   Clear
6:06 PM 68.0 °F - 28.4 °F 23% 29.96 in 10.0 mi West 23.0 mph 31.1 mph N/A   Clear
6:30 PM 64.4 °F - 26.6 °F 24% 29.98 in 10.0 mi West 21.9 mph 31.1 mph N/A   Clear
6:48 PM 62.6 °F - 23.0 °F 22% 29.98 in 10.0 mi WSW 18.4 mph 26.5 mph N/A   Clear
7:06 PM 60.8 °F - 23.0 °F 23% 29.99 in 10.0 mi West 12.7 mph 23.0 mph N/A   Clear
7:30 PM 60.8 °F - 21.2 °F 22% 30.00 in 10.0 mi West 12.7 mph 24.2 mph N/A   Clear
7:48 PM 60.8 °F - 21.2 °F 22% 30.02 in 10.0 mi West 15.0 mph 23.0 mph N/A   Clear
8:06 PM 60.8 °F - 23.0 °F 23% 30.04 in 10.0 mi West 20.7 mph 29.9 mph N/A   Scattered Clouds
8:30 PM 59.0 °F - 23.0 °F 25% 30.04 in 10.0 mi West 17.3 mph 31.1 mph N/A   Scattered Clouds
8:48 PM 59.0 °F - 23.0 °F 25% 30.06 in 10.0 mi West 11.5 mph 25.3 mph N/A   Scattered Clouds
9:06 PM 55.4 °F - 23.0 °F 29% 30.07 in 10.0 mi West 9.2 mph - N/A   Clear
9:30 PM 53.6 °F - 21.2 °F 28% 30.08 in 10.0 mi West 5.8 mph - N/A   Clear
9:48 PM 53.6 °F - 23.0 °F 30% 30.07 in 10.0 mi WNW 4.6 mph - N/A   Clear
10:06 PM 53.6 °F - 23.0 °F 30% 30.07 in 10.0 mi North 8.1 mph - N/A   Clear
10:30 PM 53.6 °F - 24.8 °F 33% 30.09 in 10.0 mi NNW 9.2 mph - N/A   Scattered Clouds
10:48 PM 53.6 °F - 24.8 °F 33% 30.10 in 10.0 mi NW 9.2 mph - N/A   Scattered Clouds
11:06 PM 50.0 °F - 23.0 °F 35% 30.10 in 10.0 mi NNW 5.8 mph - N/A   Scattered Clouds
11:30 PM 50.0 °F - 23.0 °F 35% 30.10 in 10.0 mi North 4.6 mph - N/A   Scattered Clouds
11:48 PM 48.2 °F - 24.8 °F 40% 30.10 in 10.0 mi ESE 3.5 mph - N/A   Scattered Clouds